GW7528 Weather Reports


time (UTC)temp
C
wind
direction
speed
KPH
gust
KPH
rain 1hr
cm
rain 24hr
cm
rain mn
cm
humidity
%
barometer
mb
20260902143400 30 115 6.4 8.0 0.00 0.00 0.00 66 1019.3
20260902142900 30 120 4.8 6.4 0.00 0.00 0.00 66 1019.3
20260902142359 30 211 3.2 4.8 0.00 0.00 0.00 67 1019.3
20260902141901 29 152 1.6 3.2 0.00 0.00 0.00 69 1019.3
20260902141402 29 116 1.6 4.8 0.00 0.00 0.00 67 1019.3
20260902140859 29 118 1.6 3.2 0.00 0.00 0.00 68 1019.3
20260902140400 29 127 3.2 4.8 0.00 0.00 0.00 69 1019.3
20260902135901 28 82 3.2 4.8 0.00 0.00 0.00 70 1019.3
20260902135359 28 103 4.8 6.4 0.00 0.00 0.00 72 1019.3
20260902134900 28 86 3.2 4.8 0.00 0.00 0.00 71 1019.4
20260902134359 28 90 3.2 4.8 0.00 0.00 0.00 72 1019.4
20260902133900 28 60 3.2 3.2 0.00 0.00 0.00 74 1019.4
20260902133400 27 91 3.2 4.8 0.00 0.00 0.00 75 1019.5
20260902132859 27 118 1.6 4.8 0.00 0.00 0.00 75 1019.5
20260902132401 26 141 0.0 3.2 0.00 0.00 0.00 77 1019.4
20260902131859 26 50 1.6 3.2 0.00 0.00 0.00 79 1019.4
20260902131359 26 6 0.0 1.6 0.00 0.00 0.00 80 1019.4
20260902130901 26 66 1.6 3.2 0.00 0.00 0.00 81 1019.4
20260902130402 25 73 0.0 3.2 0.00 0.00 0.00 82 1019.3
20260902125859 25 145 6.4 8.0 0.00 0.00 0.00 82 1019.4
20260902125400 25 360 0.0 0.0 0.00 0.00 0.00 84 1019.3
20260902124900 25 92 1.6 3.2 0.00 0.00 0.00 85 1019.2
20260902124359 24 64 0.0 1.6 0.00 0.00 0.00 88 1019.2
20260902123900 23 360 0.0 0.0 0.00 0.00 0.00 90 1019.2
20260902123400 23 24 1.6 3.2 0.00 0.00 0.00 92 1019.2
20260902122859 22 75 1.6 3.2 0.00 0.00 0.00 97 1019.2
20260902122359 22 14 1.6 3.2 0.00 0.00 0.00 97 1019.1
20260902121901 22 344 3.2 4.8 0.00 0.00 0.00 98 1019.1
20260902120932 21 23 1.6 6.4 0.00 0.00 0.00 99 1019.0
20260902120359 21 334 1.6 4.8 0.00 0.00 0.00 99 1019.0
20260902115900 21 38 0.0 3.2 0.00 0.00 0.00 99 1018.9
20260902115359 21 336 0.0 0.0 0.00 0.00 0.00 99 1018.9
20260902114900 21 329 1.6 3.2 0.00 0.00 0.00 99 1018.9
20260902114359 21 338 3.2 4.8 0.00 0.00 0.00 99 1018.8
20260902113900 21 343 1.6 4.8 0.00 0.00 0.00 99 1018.7
20260902113359 21 87 3.2 3.2 0.00 0.00 0.00 99 1018.7
20260902112859 21 88 3.2 3.2 0.00 0.00 0.00 99 1018.6
20260902112400 21 75 3.2 4.8 0.00 0.00 0.00 99 1018.6
20260902111902 21 333 0.0 1.6 0.00 0.00 0.00 99 1018.5
20260902111359 21 312 0.0 1.6 0.00 0.00 0.00 99 1018.4
20260902110859 21 348 1.6 1.6 0.00 0.00 0.00 99 1018.3
20260902110359 21 344 1.6 3.2 0.00 0.00 0.00 99 1018.3
20260902105859 21 345 1.6 3.2 0.00 0.00 0.00 99 1018.3
20260902105359 21 355 0.0 1.6 0.00 0.00 0.00 99 1018.2
20260902104859 21 335 1.6 3.2 0.00 0.00 0.00 99 1018.2
20260902104359 21 327 1.6 3.2 0.00 0.00 0.00 99 1018.1
20260902103859 21 294 1.6 3.2 0.00 0.00 0.00 99 1018.0
20260902103400 21 17 1.6 3.2 0.00 0.00 0.00 99 1017.9
20260902102901 21 60 3.2 4.8 0.00 0.00 0.00 99 1017.9
20260902102401 21 80 1.6 3.2 0.00 0.00 0.00 98 1017.9
20260902101859 21 329 1.6 4.8 0.00 0.00 0.00 99 1017.9
20260902101400 21 316 1.6 3.2 0.00 0.00 0.00 98 1017.8
20260902100859 21 84 1.6 4.8 0.00 0.00 0.00 98 1017.8
20260902100359 21 55 1.6 3.2 0.00 0.00 0.00 98 1017.8
20260902095859 21 55 1.6 3.2 0.00 0.00 0.00 98 1017.8
20260902095359 21 44 1.6 3.2 0.00 0.00 0.00 98 1017.8
20260902094900 21 58 1.6 3.2 0.00 0.00 0.00 98 1017.7
20260902094403 21 306 1.6 3.2 0.00 0.00 0.00 98 1017.6
20260902093859 21 327 0.0 1.6 0.00 0.00 0.00 98 1017.6
20260902093359 21 331 1.6 3.2 0.00 0.00 0.00 98 1017.6
20260902092900 21 356 1.6 3.2 0.00 0.00 0.00 98 1017.6
20260902092359 21 360 0.0 1.6 0.00 0.00 0.00 98 1017.6
20260902091900 21 310 1.6 4.8 0.00 0.00 0.00 98 1017.6
20260902091400 21 308 1.6 4.8 0.00 0.00 0.00 97 1017.5
20260902090859 21 2 0.0 3.2 0.00 0.00 0.00 97 1017.6
20260902090400 21 329 1.6 3.2 0.00 0.00 0.00 97 1017.6
20260902085859 21 324 1.6 4.8 0.00 0.00 0.00 97 1017.6
20260902085400 21 341 0.0 1.6 0.00 0.00 0.00 97 1017.5
20260902084901 21 22 1.6 3.2 0.00 0.00 0.00 97 1017.5
20260902084400 21 352 0.0 3.2 0.00 0.00 0.00 97 1017.5
20260902083859 21 24 1.6 3.2 0.00 0.00 0.00 97 1017.5
20260902083401 21 338 1.6 3.2 0.00 0.00 0.00 96 1017.5
20260902082859 21 171 0.0 1.6 0.00 0.00 0.00 96 1017.5
20260902082359 21 354 0.0 3.2 0.00 0.00 0.00 96 1017.4
20260902081900 21 342 0.0 3.2 0.00 0.00 0.00 96 1017.4
20260902081359 21 308 1.6 3.2 0.00 0.00 0.00 96 1017.4
20260902080900 21 349 3.2 3.2 0.00 0.00 0.00 97 1017.3
20260902080359 21 16 0.0 3.2 0.00 0.00 0.00 96 1017.3
20260902075859 21 345 1.6 3.2 0.00 0.00 0.00 96 1017.3
20260902075400 21 287 1.6 3.2 0.00 0.00 0.00 96 1017.3
20260902074859 21 358 1.6 4.8 0.00 0.00 0.00 96 1017.3
20260902074359 21 56 3.2 4.8 0.00 0.00 0.00 96 1017.3
20260902073900 22 87 0.0 3.2 0.00 0.00 0.00 96 1017.3
20260902073401 22 57 1.6 3.2 0.00 0.00 0.00 96 1017.3
20260902072859 22 70 1.6 3.2 0.00 0.00 0.00 95 1017.3
20260902072359 22 324 1.6 3.2 0.00 0.00 0.00 95 1017.3
20260902071900 22 339 0.0 4.8 0.00 0.00 0.00 95 1017.3
20260902071400 22 8 0.0 3.2 0.00 0.00 0.00 95 1017.3
20260902070859 22 351 1.6 4.8 0.00 0.00 0.00 94 1017.3
20260902070359 22 300 1.6 1.6 0.00 0.00 0.00 95 1017.3
20260902065859 22 287 1.6 3.2 0.00 0.00 0.00 95 1017.4
20260902065400 22 340 0.0 1.6 0.00 0.00 0.00 95 1017.4
20260902064859 22 337 1.6 1.6 0.00 0.00 0.00 94 1017.4
20260902064359 22 71 1.6 3.2 0.00 0.00 0.00 94 1017.4
20260902063900 22 336 1.6 3.2 0.00 0.00 0.00 94 1017.3
20260902063359 22 349 1.6 3.2 0.00 0.00 0.00 94 1017.4
20260902062859 22 4 1.6 3.2 0.00 0.00 0.00 93 1017.4
20260902062400 22 263 0.0 3.2 0.00 0.00 0.00 94 1017.4
20260902061900 22 318 1.6 3.2 0.00 0.00 0.00 94 1017.4
20260902061401 22 109 1.6 3.2 0.00 0.00 0.00 93 1017.4
20260902060859 22 130 1.6 4.8 0.00 0.00 0.00 93 1017.4
20260902060401 22 284 3.2 4.8 0.00 0.00 0.00 93 1017.3
20260902055859 22 295 0.0 3.2 0.00 0.00 0.00 94 1017.4
20260902055401 22 314 1.6 3.2 0.00 0.00 0.00 93 1017.4
20260902054900 22 146 3.2 6.4 0.00 0.00 0.00 93 1017.4
20260902054359 22 131 1.6 3.2 0.00 0.00 0.00 92 1017.4
20260902053901 23 319 1.6 4.8 0.00 0.00 0.00 92 1017.3
20260902053400 23 354 1.6 3.2 0.00 0.00 0.00 91 1017.3
20260902052900 23 312 3.2 3.2 0.00 0.00 0.00 91 1017.3
20260902052359 23 326 1.6 3.2 0.00 0.00 0.00 91 1017.3
20260902051859 23 316 3.2 4.8 0.00 0.00 0.00 92 1017.3
20260902051400 23 316 1.6 3.2 0.00 0.00 0.00 91 1017.3
20260902050859 23 323 1.6 3.2 0.00 0.00 0.00 91 1017.3
20260902050401 23 17 1.6 3.2 0.00 0.00 0.00 90 1017.3
20260902045900 23 302 0.0 3.2 0.00 0.00 0.00 90 1017.2
20260902045400 23 314 1.6 3.2 0.00 0.00 0.00 90 1017.2
20260902044859 23 317 3.2 4.8 0.00 0.00 0.00 90 1017.2
20260902044402 23 78 3.2 4.8 0.00 0.00 0.00 89 1017.2
20260902043900 23 328 1.6 4.8 0.00 0.00 0.00 87 1017.2
20260902043403 23 281 0.0 1.6 0.00 0.00 0.00 87 1017.3
20260902042901 23 292 0.0 1.6 0.00 0.00 0.00 89 1017.2
20260902042359 23 298 0.0 3.2 0.00 0.00 0.00 89 1017.2
20260902041859 23 324 1.6 3.2 0.00 0.00 0.00 90 1017.2
20260902041401 23 343 1.6 3.2 0.00 0.00 0.00 90 1017.3
20260902040900 23 358 1.6 3.2 0.00 0.00 0.00 89 1017.3
20260902040359 23 100 3.2 3.2 0.00 0.00 0.00 88 1017.4
20260902035900 24 279 3.2 4.8 0.00 0.00 0.00 87 1017.4
20260902035400 24 95 0.0 1.6 0.00 0.00 0.00 86 1017.4
20260902034859 24 319 1.6 4.8 0.00 0.00 0.00 86 1017.4
20260902034359 24 58 0.0 0.0 0.00 0.00 0.00 85 1017.4
20260902033902 24 305 0.0 1.6 0.00 0.00 0.00 86 1017.4
20260902033359 24 3 0.0 1.6 0.00 0.00 0.00 87 1017.4
20260902032901 24 360 0.0 0.0 0.00 0.00 0.00 86 1017.5
20260902032359 24 339 0.0 1.6 0.00 0.00 0.00 86 1017.5
20260902031902 24 360 0.0 0.0 0.00 0.00 0.00 86 1017.5
20260902031400 25 288 1.6 3.2 0.00 0.00 0.00 86 1017.5
20260902030859 25 10 0.0 3.2 0.00 0.00 0.00 85 1017.5
20260902030400 25 27 0.0 3.2 0.00 0.00 0.00 85 1017.4
20260902025859 25 360 0.0 0.0 0.00 0.00 0.00 84 1017.4
20260902025400 25 98 0.0 1.6 0.00 0.00 0.00 85 1017.4
20260902024859 25 360 0.0 0.0 0.00 0.00 0.00 83 1017.4
20260902024359 25 299 0.0 1.6 0.00 0.00 0.00 83 1017.4
20260902023859 25 360 0.0 0.0 0.00 0.00 0.00 84 1017.4
20260902023359 25 360 0.0 0.0 0.00 0.00 0.00 84 1017.4
20260902022900 25 360 0.0 0.0 0.00 0.00 0.00 82 1017.4
20260902022400 26 323 0.0 0.0 0.00 0.00 0.00 82 1017.3
20260902021900 26 348 0.0 0.0 0.00 0.00 0.00 81 1017.3
20260902021400 26 292 1.6 3.2 0.00 0.00 0.00 81 1017.2
20260902020900 26 296 3.2 3.2 0.00 0.00 0.00 81 1017.2
20260902020359 26 303 1.6 3.2 0.00 0.00 0.00 81 1017.1
20260902015900 26 14 0.0 0.0 0.00 0.00 0.00 81 1017.1
20260902015400 26 306 1.6 3.2 0.00 0.00 0.00 81 1017.0
20260902014900 26 298 0.0 3.2 0.00 0.00 0.00 81 1017.0
20260902014401 26 14 0.0 0.0 0.00 0.00 0.00 80 1016.9
20260902013900 27 35 0.0 1.6 0.00 0.00 0.00 79 1016.9
20260902013400 27 72 0.0 1.6 0.00 0.00 0.00 79 1017.0
20260902012901 27 357 0.0 0.0 0.00 0.00 0.00 78 1016.9
20260902012401 27 299 3.2 3.2 0.00 0.00 0.00 77 1016.9
20260902011900 27 313 0.0 3.2 0.00 0.00 0.00 76 1016.9
20260902011359 28 312 0.0 3.2 0.00 0.00 0.00 75 1016.8
20260902010900 28 300 3.2 3.2 0.00 0.00 0.00 73 1016.7
20260902010400 28 221 1.6 3.2 0.00 0.00 0.00 73 1016.7
20260902005859 28 287 1.6 3.2 0.00 0.00 0.00 72 1016.6
20260902005359 28 304 0.0 0.0 0.00 0.00 0.00 71 1016.6
20260902004859 29 311 1.6 3.2 0.00 0.00 0.00 70 1016.6
20260902004359 30 310 3.2 3.2 0.00 0.00 0.00 68 1016.5
20260902003900 30 305 3.2 4.8 0.00 0.00 0.00 67 1016.5
20260902003359 30 303 3.2 3.2 0.00 0.00 0.00 67 1016.5
20260902002859 31 104 1.6 1.6 0.00 0.00 0.00 65 1016.5
20260902002359 31 95 1.6 3.2 0.00 0.00 0.00 64 1016.4
20260902001900 32 112 1.6 3.2 0.00 0.00 0.00 62 1016.4
20260902001400 32 107 3.2 3.2 0.00 0.00 0.00 60 1016.4
20260902000859 33 109 3.2 3.2 0.00 0.00 0.00 58 1016.4
20260902000400 33 113 1.6 3.2 0.00 0.00 0.00 57 1016.5
20260901235859 33 108 3.2 3.2 0.00 0.00 0.00 55 1016.5
20260901235359 33 114 3.2 4.8 0.00 0.00 0.00 54 1016.5
20260901234859 34 102 3.2 3.2 0.00 0.00 0.00 54 1016.5
20260901234359 34 104 3.2 3.2 0.00 0.00 0.00 53 1016.6
20260901233859 34 116 1.6 3.2 0.00 0.00 0.00 53 1016.6
20260901233359 35 105 3.2 4.8 0.00 0.00 0.00 51 1016.6
20260901232859 35 97 3.2 4.8 0.00 0.00 0.00 51 1016.6
20260901232359 35 93 3.2 4.8 0.00 0.00 0.00 50 1016.6
20260901231900 35 109 3.2 6.4 0.00 0.00 0.00 48 1016.6
20260901231359 35 112 3.2 4.8 0.00 0.00 0.00 47 1016.6
20260901230859 35 114 4.8 6.4 0.00 0.00 0.00 47 1016.6
20260901230359 35 116 4.8 4.8 0.00 0.00 0.00 46 1016.6
20260901225900 35 110 4.8 6.4 0.00 0.00 0.00 47 1016.6
20260901225359 35 103 4.8 8.0 0.00 0.00 0.00 45 1016.5
20260901224900 35 123 6.4 6.4 0.00 0.00 0.00 44 1016.5
20260901224400 36 146 3.2 3.2 0.00 0.00 0.00 42 1016.6
20260901223900 35 102 3.2 4.8 0.00 0.00 0.00 42 1016.6
20260901223359 35 123 6.4 8.0 0.00 0.00 0.00 42 1016.6
20260901222859 35 79 4.8 6.4 0.00 0.00 0.00 43 1016.5
20260901222359 35 115 6.4 8.0 0.00 0.00 0.00 42 1016.5
20260901221904 35 115 4.8 8.0 0.00 0.00 0.00 43 1016.5
20260901221359 35 109 4.8 6.4 0.00 0.00 0.00 43 1016.5
20260901220859 35 108 8.0 11.3 0.00 0.00 0.00 44 1016.5
20260901220359 35 134 4.8 8.0 0.00 0.00 0.00 43 1016.5
20260901215859 36 123 8.0 11.3 0.00 0.00 0.00 42 1016.5
20260901215400 36 108 6.4 8.0 0.00 0.00 0.00 42 1016.5
20260901214900 36 106 6.4 9.7 0.00 0.00 0.00 42 1016.5
20260901214402 36 100 4.8 6.4 0.00 0.00 0.00 43 1016.5
20260901213900 36 127 8.0 9.7 0.00 0.00 0.00 44 1016.5
20260901213401 36 110 6.4 8.0 0.00 0.00 0.00 43 1016.6
20260901212901 36 116 6.4 8.0 0.00 0.00 0.00 44 1016.6
20260901212359 35 119 8.0 9.7 0.00 0.00 0.00 43 1016.6
20260901211859 35 115 6.4 9.7 0.00 0.00 0.00 43 1016.6
20260901211359 35 128 9.7 12.9 0.00 0.00 0.00 43 1016.7
20260901210901 35 105 3.2 3.2 0.00 0.00 0.00 44 1016.7
20260901210402 35 70 8.0 9.7 0.00 0.00 0.00 45 1016.7
20260901205900 35 215 4.8 8.0 0.00 0.00 0.00 45 1016.7
20260901205359 35 71 4.8 6.4 0.00 0.00 0.00 45 1016.7
20260901204900 35 37 6.4 8.0 0.00 0.00 0.00 46 1016.8
20260901204359 35 90 6.4 8.0 0.00 0.00 0.00 47 1016.8
20260901203859 36 114 8.0 9.7 0.00 0.00 0.00 45 1016.8
20260901203359 36 87 3.2 6.4 0.00 0.00 0.00 44 1016.8
20260901202859 35 244 6.4 8.0 0.00 0.00 0.00 44 1016.8
20260901202359 35 107 6.4 9.7 0.00 0.00 0.00 46 1016.9
20260901201859 35 296 6.4 8.0 0.00 0.00 0.00 45 1017.0
20260901201359 35 86 6.4 8.0 0.00 0.00 0.00 46 1017.1
20260901200859 35 94 9.7 11.3 0.00 0.00 0.00 46 1017.1
20260901200359 34 164 3.2 4.8 0.00 0.00 0.00 48 1017.2
20260901195900 34 127 3.2 6.4 0.00 0.00 0.00 50 1017.3
20260901195359 34 119 6.4 9.7 0.00 0.00 0.00 49 1017.3
20260901194900 35 93 3.2 4.8 0.00 0.00 0.00 46 1017.3
20260901194400 35 93 8.0 12.9 0.00 0.00 0.00 47 1017.4
20260901193900 35 64 9.7 14.5 0.00 0.00 0.00 47 1017.4
20260901193359 35 81 8.0 9.7 0.00 0.00 0.00 49 1017.4
20260901192900 35 90 8.0 9.7 0.00 0.00 0.00 47 1017.4
20260901192400 35 71 3.2 6.4 0.00 0.00 0.00 47 1017.4
20260901191900 35 80 4.8 8.0 0.00 0.00 0.00 47 1017.6
20260901191400 35 69 9.7 12.9 0.00 0.00 0.00 48 1017.6
20260901190859 34 39 8.0 9.7 0.00 0.00 0.00 48 1017.7
20260901190400 34 32 6.4 9.7 0.00 0.00 0.00 51 1017.9
20260901185859 34 88 8.0 9.7 0.00 0.00 0.00 50 1017.9
20260901185359 33 360 4.8 6.4 0.00 0.00 0.00 50 1018.0
20260901184900 33 44 3.2 8.0 0.00 0.00 0.00 53 1018.0
20260901184400 33 337 3.2 4.8 0.00 0.00 0.00 53 1018.0
20260901183859 33 346 4.8 6.4 0.00 0.00 0.00 53 1018.1
20260901183401 34 323 4.8 8.0 0.00 0.00 0.00 51 1018.1
20260901182901 35 46 6.4 11.3 0.00 0.00 0.00 50 1018.1
20260901182359 35 257 6.4 11.3 0.00 0.00 0.00 49 1018.2
20260901181900 35 278 9.7 12.9 0.00 0.00 0.00 48 1018.2
20260901181359 34 107 4.8 6.4 0.00 0.00 0.00 49 1018.3
20260901180859 34 123 8.0 9.7 0.00 0.00 0.00 50 1018.4
20260901180359 34 100 8.0 9.7 0.00 0.00 0.00 50 1018.4
20260901175905 34 320 3.2 6.4 0.00 0.00 0.00 50 1018.5
20260901175401 34 75 9.7 12.9 0.00 0.00 0.00 50 1018.5
20260901174900 34 6 4.8 9.7 0.00 0.00 0.00 51 1018.6
20260901174400 33 76 3.2 4.8 0.00 0.00 0.00 51 1018.6
20260901173900 33 91 6.4 9.7 0.00 0.00 0.00 52 1018.7
20260901173359 34 39 3.2 6.4 0.00 0.00 0.00 52 1018.7
20260901172859 34 29 6.4 8.0 0.00 0.00 0.00 51 1018.8
20260901172400 34 251 4.8 8.0 0.00 0.00 0.00 52 1018.8
20260901171859 34 256 8.0 12.9 0.00 0.00 0.00 52 1018.9
20260901171400 33 99 6.4 6.4 0.00 0.00 0.00 53 1019.0
20260901170900 33 75 1.6 3.2 0.00 0.00 0.00 54 1019.1
20260901170400 33 304 11.3 14.5 0.00 0.00 0.00 54 1019.2
20260901165901 33 320 9.7 12.9 0.00 0.00 0.00 53 1019.3
20260901165359 33 338 6.4 8.0 0.00 0.00 0.00 54 1019.4
20260901164900 33 300 11.3 14.5 0.00 0.00 0.00 56 1019.5
20260901164359 33 225 6.4 8.0 0.00 0.00 0.00 56 1019.5
20260901163900 33 270 6.4 14.5 0.00 0.00 0.00 54 1019.4
20260901163359 33 302 11.3 14.5 0.00 0.00 0.00 54 1019.4
20260901162859 33 260 6.4 9.7 0.00 0.00 0.00 54 1019.5
20260901162359 33 88 1.6 3.2 0.00 0.00 0.00 55 1019.5
20260901161900 33 306 6.4 8.0 0.00 0.00 0.00 55 1019.6
20260901161400 32 260 6.4 9.7 0.00 0.00 0.00 57 1019.6
20260901160901 33 187 8.0 9.7 0.00 0.00 0.00 57 1019.6
20260901160400 33 295 8.0 11.3 0.00 0.00 0.00 56 1019.6
20260901155900 33 167 4.8 8.0 0.00 0.00 0.00 55 1019.7
20260901155359 32 284 3.2 6.4 0.00 0.00 0.00 55 1019.8
20260901154859 32 232 6.4 8.0 0.00 0.00 0.00 58 1019.7
20260901154400 32 149 3.2 6.4 0.00 0.00 0.00 59 1019.7
20260901153859 32 218 6.4 8.0 0.00 0.00 0.00 59 1019.7
20260901153400 32 226 4.8 6.4 0.00 0.00 0.00 59 1019.8
20260901152900 32 201 6.4 8.0 0.00 0.00 0.00 60 1019.8
20260901152401 32 125 8.0 9.7 0.00 0.00 0.00 60 1019.8
20260901151904 31 201 6.4 9.7 0.00 0.00 0.00 60 1019.7
20260901151400 31 143 3.2 4.8 0.00 0.00 0.00 61 1019.7
20260901150859 31 211 8.0 9.7 0.00 0.00 0.00 62 1019.7
20260901150407 31 186 4.8 8.0 0.00 0.00 0.00 64 1019.7
20260901145859 31 211 4.8 8.0 0.00 0.00 0.00 65 1019.7
20260901145400 31 186 4.8 6.4 0.00 0.00 0.00 65 1019.6
20260901144900 30 227 3.2 6.4 0.00 0.00 0.00 67 1019.7
20260901144359 30 199 3.2 4.8 0.00 0.00 0.00 68 1019.7
20260901143905 30 132 4.8 8.0 0.00 0.00 0.00 69 1019.7